Location: Bishopstone
(51.0167°N, 1.9000°W)
Time: 22:23:37
(UTC+00:00)

Cosmos 1140 Rocket - Pass Details

Date: 16 September 2019
Orbit: 745 x 767 km, 74.1° (Epoch: 20 October)

Event Time Altitude Azimuth Distance (km) Brightness Sun altitude
Rises 19:56:42 0° 337° (NNW) 3,230 7.5 -15.5°
Reaches altitude 10° 19:59:09 10° 342° (NNW) 2,297 6.6 -15.8°
Maximum altitude 20:04:16 57° 61° (ENE) 891 3.6 -16.5°
Enters shadow 20:06:48 29° 128° (SE) 1,369 4.2 -16.9°
